SCP
0 0 0 0 0 0 0 0 0 0 0 0 0 0 0 0 0 0 0 0 0 0 0 0 0 0 0 0 0 0 0 0 0 0 0 0 0 0 0 0 0 0 0
0 0 0 0 0 0 0 0 0 0 0 0 0 0 0 0 0 0 0 0 0 0 0 0 0 0 0 0 0 0 0 0 0 0 0 0 0 0 0 0 0 0 0
0 0 0 0 0 0 0 0 0 0 0 0 0 0 0 0 0 0 0 0 0 0 0 0 0 0 0 0 0 0 0 0 0 0 0 0 0 0 0 0 0 0 0
0 0 0 0 0 0 0 0 0 0 0 0 0 0 0 0 0 0 0 0 0 0 0 0 0 0 0 0 0 0 0 0 0 0 0 0 0 0 0 0 0 0 0
0 0 0 0 0 0 0 0 0 0 0 0 0 0 0 0 0 0 0 0 0 0 0 0 0 0 0 0 0 0 0 0 0 0 0 0 0 0 0 0 0 0 0
0 0 0 0 0 0 0 0 0 0 0 0 0 0 0 0 0 0 0 0 0 0 0 0 0 0 0 0 0 0 0 0 0 0 0 0 0 0 0 0 0 0 0
0 0 0 0 0 0 0 0 0 0 0 0 0 0 0 0 0 0 0 0 0 0 0 0 0 0 0 0 0 0 0 0 0 0 0 0 0 0 0 0 0 0 0
0 0 0 0 0 0 0 0 0 0 0 0 0 0 0 0 0 0 0 0 0 0 0 0 0 0 0 0 0 0 0 0 0 0 0 0 0 0 0 0 0 0 0
0 0 0 0 0 0 0 0 0 0 0 0 0 0 0 0 0 0 0 0 0 0 0 0 0 0 0 0 0 0 0 0 0 0 0 0 0 0 0 0 0 0 0
0 0 0 0 0 0 0 0 0 0 0 0 0 0 0 0 0 0 0 0 0 0 0 0 0 0 0 0 0 0 0 0 0 0 0 0 0 0 0 0 0 0 0
0 0 0 0 0 0 0 0 0 0 0 0 0 0 0 0 0 0 0 0 0 0 0 0 0 0 0 0 0 0 0 0 0 0 0 0 0 0 0 0 0 0 0
0 0 0 0 0 0 0 0 0 0 0 0 0 0 0 0 0 0 0 0 0 0 0 0 0 0 0 0 0 0 0 0 0 0 0 0 0 0 0 0 0 0 0
0 0 0 0 0 0 0 0 0 0 0 0 0 0 0 0 0 0 0 0 0 0 0 0 0 0 0 0 0 0 0 0 0 0 0 0 0 0 0 0 0 0 0
0 0 0 0 0 0 0 0 0 0 0 0 0 0 0 0 0 0 0 0 0 0 0 0 0 0 0 0 0 0 0 0 0 0 0 0 0 0 0 0 0 0 0
0 0 0 0 0 0 0 0 0 0 0 0 0 0 0 0 0 0 0 0 0 0 0 0 0 0 0 0 0 0 0 0 0 0 0 0 0 0 0 0 0 0 0
0 0 0 0 0 0 0 0 0 0 0 0 0 0 0 0 0 0 0 0 0 0 0 0 0 0 0 0 0 0 0 0 0 0 0 0 0 0 0 0 0 0 0
0 0 0 0 0 0 0 0 0 0 0 0 0 0 0 0 0 0 0 0 0 0 0 0 0 0 0 0 0 0 0 0 0 0 0 0 0 0 0 0 0 0 0
0 0 0 0 0 0 0 0 0 0 0 0 0 0 0 0 0 0 0 0 0 0 0 0 0 0 0 0 0 0 0 0 0 0 0 0 0 0 0 0 0 0 0
0 0 0 0 0 0 0 0 0 0 0 0 0 0 0 0 0 0 0 0 0 0 0 0 0 0 0 0 0 0 0 0 0 0 0 0 0 0 0 0 0 0 0
0 0 0 0 0 0 0 0 0 0 0 0 0 0 0 0 0 0 0 0 0 0 0 0 0 0 0 0 0 0 0 0 0 0 0 0 0 0 0 0 0 0 0
-0 0 0 0 0 0 0 0 0 0 0 0 0 0 0 0 0 0 0 0 0 0 0 0 0 0 0 0 0 0 0 0 0 0 0 0 0 0 0 0 0 0 0
0 0 0 0 0 0 0 0 0 0 0 0 0 0 0 0 0 0 0 0 0 0 0 0 0 0 0 0 0 0 0 0 0 0 0 0 0 0 0 0 0 0 0
0 0 0 0 0 0 0 0 0 0 0 0 0 0 0 0 0 0 0 0 0 0 0 0 0 0 0 0 0 0 0 0 0 0 0 0 0 0 0 0 0 0 0
0 0 0 0 0 0 0 0 0 0 0 0 0 0 0 0 0 0 0 0 0 0 0 0 0 0 0 0 0 0 0 0 0 0 0 0 0 0 0 0 0 0 0
0 0 0 0 0 0 0 0 0 0 0 0 0 0 0 0 0 0 0 0 0 0 0 0 0 0 0 0 0 0 0 0 0 0 0 0 0 0 0 0 0 0 0
0 0 0 0 0 0 0 0 0 0 0 0 0 0 0 0 0 0 0 0 0 0 0 0 0 0 0 0 0 0 0 0 0 0 0 0 0 0 0 0 0 0 0
Wind_Speed
3 3 3 2 2 2 2 2 2 2 2 2 2 2 3 2 2 2 3 5 4 3 3 3 2 1 2 2 2 2 2 2 2 2 2 3 4 4 4 4 5 5 5
3 3 3 3 2 2 2 2 2 2 2 2 3 3 2 2 1 2 2 4 5 5 5 4 4 3 3 3 3 3 3 3 3 3 3 4 4 4 5 5 5 5 6
3 3 3 3 2 2 2 2 2 2 2 2 3 2 2 2 2 2 1 1 3 5 6 5 5 5 5 3 3 3 3 3 4 4 4 4 5 5 5 5 6 6 6
3 3 3 2 2 2 2 2 1 2 2 2 2 2 2 2 2 2 2 2 2 2 4 6 6 6 6 5 3 2 3 3 4 4 4 5 5 5 5 6 6 6 7
3 3 2 2 2 2 2 2 1 1 2 2 2 2 1 2 3 2 3 3 3 2 2 4 5 6 6 6 4 3 3 3 3 3 4 5 5 5 6 6 6 7 7
3 3 2 3 2 2 2 2 2 2 2 2 2 2 2 2 2 2 2 3 2 2 2 2 1 3 5 6 5 4 4 3 3 3 4 5 6 6 6 7 7 7 7
3 3 2 2 2 2 2 3 2 3 2 1 1 2 2 2 2 2 1 1 2 2 2 2 2 2 1 3 5 5 5 4 4 4 4 5 6 7 7 7 7 8 7
3 2 3 2 2 2 3 3 2 2 2 1 1 1 1 2 2 1 1 1 1 2 2 2 2 2 2 1 3 5 6 5 5 5 5 6 7 7 8 8 8 8 8
3 3 3 2 2 2 2 2 3 2 2 1 0 1 1 1 1 1 1 0 1 1 2 2 2 2 2 2 1 2 5 6 5 5 6 6 7 7 8 8 7 8 8
3 3 3 2 2 2 2 2 2 2 3 2 1 0 1 1 1 1 2 1 1 2 2 2 2 2 2 1 2 4 4 5 6 6 6 7 7 8 8 8 8 8 8
3 3 3 2 2 2 2 2 2 2 2 2 2 1 1 1 2 2 2 1 1 1 2 3 2 2 2 2 2 3 4 5 6 6 7 7 7 8 8 8 9 9 8
2 3 3 3 3 2 2 2 2 2 2 2 2 2 1 1 1 2 3 3 2 2 2 2 2 2 2 2 2 3 4 5 6 7 7 7 7 8 9 9 9 9 9
3 4 3 3 3 2 2 2 2 2 2 2 2 2 2 2 1 2 2 2 3 2 3 3 2 2 2 2 2 3 4 5 6 7 8 8 8 8 9 9 10 10 10
3 3 4 3 3 3 3 2 2 2 2 3 3 2 2 2 2 2 2 2 3 3 3 4 2 3 3 3 3 5 4 5 6 7 8 8 8 8 9 9 9 10 9
3 4 3 3 3 3 3 3 2 3 3 3 3 3 2 2 2 2 2 3 3 4 4 3 3 3 3 3 4 5 5 5 6 7 8 8 9 9 9 9 10 10 9
3 4 4 4 4 4 4 3 3 3 4 3 2 3 3 2 2 2 3 3 4 4 4 3 4 4 4 4 5 6 6 6 7 8 8 8 9 9 10 10 10 9 9
4 4 4 4 4 4 4 4 4 4 5 4 3 4 4 4 3 3 3 3 4 4 5 5 4 5 6 6 5 5 5 6 5 7 9 9 9 10 10 10 9 9 9
4 4 5 5 5 5 5 5 5 5 5 5 4 4 5 3 4 4 4 4 4 5 5 7 6 5 7 7 6 6 5 5 6 6 8 9 10 10 10 10 10 9 9
4 4 5 5 5 5 5 5 5 5 5 5 5 5 5 5 6 4 5 5 4 4 5 6 6 5 5 5 6 6 6 5 6 6 8 9 10 10 10 10 10 10 10
5 5 5 5 5 5 5 5 5 5 6 6 6 6 6 6 6 6 5 6 5 5 5 5 6 6 6 6 5 5 5 5 5 5 6 7 8 10 10 11 11 10 11
5 5 5 5 5 5 5 6 5 6 6 6 6 6 6 7 7 7 5 6 6 5 5 5 6 6 6 5 5 5 6 5 6 5 5 5 5 6 6 8 9 10 11
4 4 5 5 5 5 6 7 6 6 6 6 6 6 6 7 8 10 11 10 10 8 7 7 6 7 8 7 6 6 5 6 5 3 5 6 5 6 6 6 8 10 11
4 5 5 6 6 7 8 9 9 7 7 7 7 6 5 5 7 7 8 10 11 13 13 10 9 9 9 8 8 8 7 7 7 4 5 7 6 7 6 6 10 11 11
5 5 5 6 6 7 8 10 9 8 7 8 8 8 7 7 7 7 7 8 8 9 10 9 10 10 9 8 8 8 8 8 7 5 5 7 6 7 6 6 8 11 11
5 5 5 6 7 7 8 9 9 6 6 8 8 8 8 8 9 9 9 9 9 8 9 11 13 12 12 12 9 6 6 5 6 5 4 5 6 6 6 7 7 9 11
5 5 5 6 7 7 8 10 10 6 6 6 6 7 9 9 10 10 9 9 9 9 7 7 8 9 10 10 11 9 7 6 5 5 4 4 5 4 5 5 5 5 7
Wind_Direction
133 130 126 124 120 115 123 109 106 101 98 95 93 120 126 131 132 132 103 78 50 42 43 45 55 88 100 86 74 49 49 47 34 18 5 1 357 350 343 341 338 332 324
129 131 127 123 117 113 108 115 111 108 99 85 80 81 115 115 109 104 89 99 71 43 35 37 38 44 61 75 71 67 52 47 40 30 22 9 353 341 333 329 328 328 327
134 134 129 125 115 108 108 110 110 108 103 99 99 88 77 83 97 100 87 77 96 72 48 36 35 36 34 38 51 52 37 26 24 18 4 353 347 342 336 332 329 325 322
140 140 130 120 118 119 122 120 121 118 104 99 99 93 88 92 75 69 83 84 72 77 75 48 34 30 25 18 17 29 35 29 20 10 356 340 334 335 333 329 329 329 324
145 139 130 123 132 134 131 126 117 124 109 90 86 87 82 93 93 76 70 65 59 47 52 76 54 37 27 22 20 23 22 15 5 354 349 344 332 328 325 322 321 320 318
140 133 135 134 135 140 137 136 119 109 108 102 100 86 76 85 89 84 75 66 53 45 35 46 75 61 36 22 19 17 5 357 349 345 343 340 335 331 327 322 318 316 316
144 144 142 142 146 147 140 138 130 122 108 115 139 118 108 102 99 92 75 69 55 36 26 24 22 8 37 38 28 17 5 352 345 340 335 328 327 327 321 317 316 316 316
150 158 155 153 152 149 146 144 144 137 115 127 209 185 187 174 145 90 93 44 15 14 10 9 8 1 354 355 44 19 3 357 352 345 336 327 322 320 320 312 310 310 311
159 163 161 158 159 163 161 165 164 161 153 153 284 270 239 228 157 168 167 170 345 340 341 355 355 348 346 348 354 22 360 347 341 337 337 336 329 323 323 322 319 317 314
163 159 166 162 164 164 162 168 176 184 178 182 165 306 332 348 248 208 180 192 301 314 320 327 333 339 338 333 356 357 350 339 331 329 330 330 329 324 322 323 323 318 318
164 166 172 167 165 161 161 159 167 182 192 197 193 187 183 227 264 259 249 233 256 280 300 308 313 321 331 322 325 355 347 331 324 322 321 321 324 326 325 322 321 319 314
167 175 184 180 177 171 173 174 181 187 194 193 204 206 203 209 231 256 262 265 272 277 286 287 286 293 300 297 323 350 328 317 312 312 311 314 319 322 322 320 316 313 311
179 187 191 192 188 180 178 180 184 190 198 197 208 217 218 228 239 256 262 271 275 284 272 261 265 276 280 286 296 308 301 308 305 304 303 307 312 315 315 313 312 312 310
182 183 191 196 192 186 185 185 188 198 202 202 209 213 218 224 227 236 249 260 266 264 260 262 263 265 272 279 304 288 286 292 296 297 298 302 304 306 307 307 306 305 304
173 181 189 193 195 193 191 189 199 207 208 211 212 215 223 226 233 240 242 246 252 264 264 265 264 267 279 279 292 282 282 285 287 289 292 296 297 298 298 299 300 299 298
182 185 190 197 198 199 200 202 207 214 215 215 218 223 231 234 233 235 235 242 250 261 268 275 274 278 283 283 287 284 282 281 273 278 281 287 291 293 292 292 294 294 293
191 195 197 201 202 204 205 207 212 213 217 217 220 226 237 240 237 237 240 243 246 251 261 271 273 278 276 278 279 279 280 279 274 270 275 280 285 286 287 287 287 289 289
199 201 201 205 208 210 211 214 216 220 222 223 227 231 239 240 244 245 242 244 247 249 257 269 272 273 275 281 282 282 279 278 279 276 274 277 280 282 284 283 282 283 285
204 207 210 212 213 213 214 220 223 228 230 233 234 235 239 239 243 244 246 249 251 251 253 260 270 274 275 276 282 281 278 276 277 275 274 275 276 278 279 279 280 281 282
207 212 216 219 219 218 218 220 224 232 236 239 240 241 242 241 245 246 248 250 253 253 252 254 262 268 271 272 271 277 279 276 276 275 274 275 275 273 273 273 275 278 279
212 214 218 223 223 224 222 221 222 232 237 240 241 243 245 247 252 253 251 251 251 252 254 256 260 265 264 264 263 271 274 281 278 272 279 274 273 273 272 266 267 272 276
219 217 221 225 229 231 224 227 231 236 240 243 246 247 248 246 246 251 253 255 255 255 255 257 261 261 266 268 270 266 271 276 278 268 277 277 272 273 273 270 272 276 277
225 228 230 232 236 234 229 233 237 243 244 245 248 250 251 249 249 252 253 255 256 257 258 260 260 261 265 265 267 265 261 264 269 273 278 276 273 274 275 273 272 272 275
226 230 232 235 239 237 232 239 239 242 245 246 246 247 250 252 249 252 257 260 260 258 256 255 258 264 266 267 264 266 270 273 276 267 259 273 276 276 278 274 268 268 273
232 236 237 236 239 241 233 238 239 243 245 249 251 250 250 253 253 254 257 259 263 265 261 258 262 267 269 267 262 258 255 258 268 265 251 263 275 284 279 272 266 261 266
236 239 242 242 242 245 237 237 239 242 245 250 252 250 247 250 254 253 254 257 260 265 267 265 259 258 259 255 249 245 244 247 263 267 242 250 268 281 281 266 269 272 270